Time,TemperatureF,DewpointF,PressureIn,WindDirection,WindDirectionDegrees,WindSpeedMPH,WindSpeedGustMPH,Humidity,HourlyPrecipIn,Conditions,Clouds,dailyrainin,SoftwareType,DateUTC
2013-06-09 00:04:00,63.8,62.0,29.97,WSW,246,0.0,0.0,92,0.00,,,0.00,weatherlink.com 1.10,2013-06-09 04:04:00,
2013-06-09 00:19:00,63.4,61.0,29.98,WSW,246,0.0,0.0,92,0.00,,,0.00,weatherlink.com 1.10,2013-06-09 04:19:00,
2013-06-09 00:34:00,63.0,61.0,29.99,WSW,246,0.0,0.0,92,0.00,,,0.00,weatherlink.com 1.10,2013-06-09 04:34:00,
2013-06-09 00:49:00,62.7,61.0,29.99,WSW,246,0.0,0.0,93,0.00,,,0.00,weatherlink.com 1.10,2013-06-09 04:49:00,
2013-06-09 01:04:00,62.3,60.0,29.99,WSW,246,0.0,0.0,93,0.00,,,0.00,weatherlink.com 1.10,2013-06-09 05:04:00,
2013-06-09 01:19:00,62.1,60.0,29.99,WSW,246,0.0,0.0,93,0.00,,,0.00,weatherlink.com 1.10,2013-06-09 05:19:00,
2013-06-09 01:34:00,61.7,60.0,29.99,WSW,246,0.0,0.0,93,0.00,,,0.00,weatherlink.com 1.10,2013-06-09 05:34:00,
2013-06-09 01:49:00,61.4,60.0,29.99,WSW,246,0.0,0.0,94,0.00,,,0.00,weatherlink.com 1.10,2013-06-09 05:49:00,
2013-06-09 02:04:00,61.1,59.0,29.99,WSW,246,0.0,0.0,94,0.00,,,0.00,weatherlink.com 1.10,2013-06-09 06:04:00,
2013-06-09 02:19:00,60.8,59.0,29.98,WSW,246,0.0,0.0,94,0.00,,,0.00,weatherlink.com 1.10,2013-06-09 06:19:00,
2013-06-09 02:34:00,60.4,59.0,29.98,WSW,246,0.0,0.0,94,0.00,,,0.00,weatherlink.com 1.10,2013-06-09 06:34:00,
2013-06-09 02:49:00,60.1,58.0,29.98,WSW,246,0.0,0.0,94,0.00,,,0.00,weatherlink.com 1.10,2013-06-09 06:49:00,
2013-06-09 03:04:00,59.8,58.0,29.98,WSW,246,0.0,0.0,94,0.00,,,0.00,weatherlink.com 1.10,2013-06-09 07:04:00,
2013-06-09 03:19:00,59.6,58.0,29.98,WSW,246,0.0,1.0,95,0.00,,,0.00,weatherlink.com 1.10,2013-06-09 07:19:00,
2013-06-09 03:34:00,59.8,58.0,29.97,WSW,246,0.0,2.0,95,0.00,,,0.00,weatherlink.com 1.10,2013-06-09 07:34:00,
2013-06-09 03:49:00,60.1,59.0,29.98,WSW,246,0.0,2.0,96,0.00,,,0.00,weatherlink.com 1.10,2013-06-09 07:49:00,
2013-06-09 04:04:00,60.4,59.0,29.98,WSW,246,0.0,0.0,96,0.00,,,0.00,weatherlink.com 1.10,2013-06-09 08:04:00,
2013-06-09 04:19:00,60.7,60.0,29.98,WSW,246,0.0,0.0,96,0.00,,,0.00,weatherlink.com 1.10,2013-06-09 08:19:00,
2013-06-09 04:34:00,60.9,60.0,29.98,WSW,246,0.0,1.0,96,0.00,,,0.00,weatherlink.com 1.10,2013-06-09 08:34:00,
2013-06-09 04:49:00,61.3,60.0,29.98,WSW,246,0.0,0.0,96,0.00,,,0.00,weatherlink.com 1.10,2013-06-09 08:49:00,
2013-06-09 05:04:00,61.5,60.0,29.98,WSW,246,0.0,0.0,96,0.00,,,0.00,weatherlink.com 1.10,2013-06-09 09:04:00,
2013-06-09 05:19:00,61.7,61.0,29.98,WSW,246,0.0,0.0,96,0.00,,,0.00,weatherlink.com 1.10,2013-06-09 09:19:00,
2013-06-09 05:34:00,62.0,61.0,29.99,WSW,246,0.0,0.0,96,0.00,,,0.00,weatherlink.com 1.10,2013-06-09 09:34:00,
2013-06-09 05:50:00,62.1,61.0,29.99,WSW,246,0.0,0.0,96,0.00,,,0.00,weatherlink.com 1.10,2013-06-09 09:50:00,
2013-06-09 06:05:00,62.1,61.0,29.99,WSW,246,0.0,0.0,96,0.00,,,0.00,weatherlink.com 1.10,2013-06-09 10:05:00,
2013-06-09 06:20:00,62.2,61.0,29.99,WSW,246,0.0,0.0,96,0.00,,,0.00,weatherlink.com 1.10,2013-06-09 10:20:00,
2013-06-09 06:35:00,62.2,61.0,29.99,WSW,246,0.0,2.0,96,0.00,,,0.00,weatherlink.com 1.10,2013-06-09 10:35:00,
2013-06-09 06:50:00,62.3,61.0,29.99,WSW,246,0.0,0.0,96,0.00,,,0.00,weatherlink.com 1.10,2013-06-09 10:50:00,
2013-06-09 07:05:00,62.3,61.0,29.99,WSW,246,0.0,0.0,96,0.00,,,0.00,weatherlink.com 1.10,2013-06-09 11:05:00,
2013-06-09 07:20:00,62.5,61.0,29.99,WSW,246,0.0,0.0,96,0.00,,,0.00,weatherlink.com 1.10,2013-06-09 11:20:00,
2013-06-09 07:35:00,63.1,62.0,29.99,WSW,246,0.0,0.0,96,0.00,,,0.00,weatherlink.com 1.10,2013-06-09 11:35:00,
2013-06-09 07:50:00,63.7,63.0,29.99,WSW,246,0.0,0.0,96,0.00,,,0.00,weatherlink.com 1.10,2013-06-09 11:50:00,
2013-06-09 08:05:00,64.4,63.0,29.99,WSW,246,0.0,0.0,96,0.00,,,0.00,weatherlink.com 1.10,2013-06-09 12:05:00,
2013-06-09 08:20:00,65.2,64.0,29.98,WSW,246,0.0,0.0,94,0.00,,,0.00,weatherlink.com 1.10,2013-06-09 12:20:00,
2013-06-09 08:35:00,66.0,63.0,29.98,WSW,246,0.0,1.0,91,0.00,,,0.00,weatherlink.com 1.10,2013-06-09 12:35:00,
2013-06-09 08:50:00,67.1,63.0,29.98,WSW,246,0.0,0.0,87,0.00,,,0.00,weatherlink.com 1.10,2013-06-09 12:50:00,
2013-06-09 09:05:00,68.3,64.0,29.97,WSW,246,0.0,0.0,85,0.00,,,0.00,weatherlink.com 1.10,2013-06-09 13:05:00,
2013-06-09 09:20:00,69.4,64.0,29.98,WSW,246,0.0,2.0,82,0.00,,,0.00,weatherlink.com 1.10,2013-06-09 13:20:00,
2013-06-09 09:35:00,70.6,64.0,29.98,SSW,199,1.0,4.0,79,0.00,,,0.00,weatherlink.com 1.10,2013-06-09 13:35:00,
2013-06-09 09:50:00,71.6,65.0,29.99,SSW,199,0.0,2.0,79,0.00,,,0.00,weatherlink.com 1.10,2013-06-09 13:50:00,
2013-06-09 10:05:00,72.7,64.0,29.98,SSW,199,0.0,1.0,75,0.00,,,0.00,weatherlink.com 1.10,2013-06-09 14:05:00,
2013-06-09 10:20:00,73.8,63.0,29.98,South,190,3.0,4.0,68,0.00,,,0.00,weatherlink.com 1.10,2013-06-09 14:20:00,
2013-06-09 10:35:00,74.4,63.0,29.98,SSW,194,3.0,7.0,67,0.00,,,0.00,weatherlink.com 1.10,2013-06-09 14:35:00,
2013-06-09 10:50:00,74.9,65.0,29.98,SSE,152,1.0,5.0,70,0.00,,,0.00,weatherlink.com 1.10,2013-06-09 14:50:00,
2013-06-09 11:05:00,75.5,63.0,29.97,SSE,167,1.0,9.0,65,0.00,,,0.00,weatherlink.com 1.10,2013-06-09 15:05:00,
2013-06-09 11:20:00,76.4,64.0,29.98,SSW,192,2.0,9.0,65,0.00,,,0.00,weatherlink.com 1.10,2013-06-09 15:20:00,
2013-06-09 11:35:00,77.1,63.0,29.98,SSE,164,3.0,7.0,61,0.00,,,0.00,weatherlink.com 1.10,2013-06-09 15:35:00,
2013-06-09 11:50:00,77.7,63.0,29.98,South,172,1.0,5.0,61,0.00,,,0.00,weatherlink.com 1.10,2013-06-09 15:50:00,
2013-06-09 12:05:00,78.1,61.0,29.97,South,184,4.0,6.0,56,0.00,,,0.00,weatherlink.com 1.10,2013-06-09 16:05:00,
2013-06-09 12:20:00,78.4,60.0,29.96,SSE,148,1.0,6.0,54,0.00,,,0.00,weatherlink.com 1.10,2013-06-09 16:20:00,
2013-06-09 12:35:00,78.3,59.0,29.96,South,179,4.0,7.0,52,0.00,,,0.00,weatherlink.com 1.10,2013-06-09 16:35:00,
2013-06-09 12:51:00,79.7,60.0,29.95,South,177,5.0,9.0,52,0.00,,,0.00,weatherlink.com 1.10,2013-06-09 16:51:00,
2013-06-09 13:06:00,79.1,60.0,29.94,South,182,1.0,8.0,53,0.00,,,0.00,weatherlink.com 1.10,2013-06-09 17:06:00,
2013-06-09 13:21:00,78.8,62.0,29.94,SSW,194,5.0,8.0,56,0.00,,,0.00,weatherlink.com 1.10,2013-06-09 17:21:00,
2013-06-09 13:36:00,78.7,61.0,29.94,South,184,5.0,8.0,54,0.00,,,0.00,weatherlink.com 1.10,2013-06-09 17:36:00,
2013-06-09 13:51:00,78.4,63.0,29.94,SSE,162,0.0,9.0,60,0.00,,,0.00,weatherlink.com 1.10,2013-06-09 17:51:00,
2013-06-09 14:06:00,77.3,61.0,29.94,South,179,3.0,7.0,57,0.00,,,0.00,weatherlink.com 1.10,2013-06-09 18:06:00,
2013-06-09 14:21:00,76.6,63.0,29.94,SSE,161,2.0,6.0,63,0.00,,,0.00,weatherlink.com 1.10,2013-06-09 18:21:00,
2013-06-09 14:36:00,76.1,66.0,29.94,South,181,6.0,9.0,70,0.00,,,0.00,weatherlink.com 1.10,2013-06-09 18:36:00,
2013-06-09 14:51:00,74.0,66.0,29.94,South,187,2.0,7.0,75,0.00,,,0.00,weatherlink.com 1.10,2013-06-09 18:51:00,
2013-06-09 15:06:00,73.2,66.0,29.93,SSE,167,2.0,7.0,77,0.00,,,0.00,weatherlink.com 1.10,2013-06-09 19:06:00,
2013-06-09 15:21:00,73.6,67.0,29.92,SSE,156,1.0,7.0,79,0.00,,,0.00,weatherlink.com 1.10,2013-06-09 19:21:00,
2013-06-09 15:36:00,73.7,66.0,29.91,SSE,156,1.0,7.0,77,0.00,,,0.00,weatherlink.com 1.10,2013-06-09 19:36:00,
2013-06-09 16:06:00,74.5,67.0,29.88,SSE,147,0.0,5.0,76,0.00,,,0.00,weatherlink.com 1.10,2013-06-09 20:06:00,
2013-06-09 17:06:00,73.8,67.0,29.87,South,173,0.0,4.0,80,0.00,,,0.00,weatherlink.com 1.10,2013-06-09 21:06:00,
2013-06-09 17:21:00,74.4,68.0,29.87,SSE,150,0.0,2.0,79,0.00,,,0.00,weatherlink.com 1.10,2013-06-09 21:21:00,
2013-06-09 17:36:00,74.5,68.0,29.87,SSW,212,2.0,6.0,80,0.00,,,0.00,weatherlink.com 1.10,2013-06-09 21:36:00,
2013-06-09 17:51:00,74.6,67.0,29.87,South,185,1.0,7.0,78,0.00,,,0.00,weatherlink.com 1.10,2013-06-09 21:51:00,
2013-06-09 18:06:00,74.8,68.0,29.87,SSE,165,3.0,5.0,80,0.00,,,0.00,weatherlink.com 1.10,2013-06-09 22:06:00,
2013-06-09 18:21:00,75.3,68.0,29.86,South,173,1.0,3.0,79,0.00,,,0.00,weatherlink.com 1.10,2013-06-09 22:21:00,
2013-06-09 18:36:00,77.8,70.0,29.86,SSE,159,0.0,2.0,77,0.00,,,0.00,weatherlink.com 1.10,2013-06-09 22:36:00,
2013-06-09 18:51:00,78.3,68.0,29.84,ESE,109,0.0,3.0,71,0.00,,,0.00,weatherlink.com 1.10,2013-06-09 22:51:00,
2013-06-09 19:06:00,77.1,68.0,29.85,SSE,163,1.0,4.0,73,0.00,,,0.00,weatherlink.com 1.10,2013-06-09 23:06:00,
2013-06-09 19:21:00,76.4,68.0,29.85,ESE,123,2.0,4.0,76,0.00,,,0.00,weatherlink.com 1.10,2013-06-09 23:21:00,
2013-06-09 19:36:00,76.0,68.0,29.84,South,179,0.0,4.0,76,0.00,,,0.00,weatherlink.com 1.10,2013-06-09 23:36:00,
2013-06-09 19:51:00,75.8,69.0,29.84,South,185,0.0,2.0,78,0.00,,,0.00,weatherlink.com 1.10,2013-06-09 23:51:00,
2013-06-09 20:06:00,75.2,68.0,29.84,South,183,4.0,4.0,78,0.00,,,0.00,weatherlink.com 1.10,2013-06-10 00:06:00,
2013-06-09 20:21:00,74.7,68.0,29.84,SSE,157,0.0,4.0,79,0.00,,,0.00,weatherlink.com 1.10,2013-06-10 00:21:00,
2013-06-09 20:36:00,74.3,67.0,29.84,SSE,164,2.0,6.0,79,0.00,,,0.00,weatherlink.com 1.10,2013-06-10 00:36:00,
2013-06-09 20:51:00,73.9,67.0,29.83,South,184,0.0,5.0,80,0.00,,,0.00,weatherlink.com 1.10,2013-06-10 00:51:00,
2013-06-09 21:06:00,73.5,67.0,29.82,South,182,0.0,3.0,80,0.00,,,0.00,weatherlink.com 1.10,2013-06-10 01:06:00,
2013-06-09 21:36:00,72.7,67.0,29.81,ESE,123,0.0,4.0,81,0.00,,,0.00,weatherlink.com 1.10,2013-06-10 01:36:00,
2013-06-09 22:06:00,72.2,67.0,29.82,South,188,2.0,6.0,83,0.00,,,0.00,weatherlink.com 1.10,2013-06-10 02:06:00,
2013-06-09 22:21:00,72.0,67.0,29.81,ESE,118,2.0,6.0,84,0.00,,,0.00,weatherlink.com 1.10,2013-06-10 02:21:00,
2013-06-09 22:36:00,71.8,67.0,29.82,South,184,4.0,6.0,85,0.00,,,0.00,weatherlink.com 1.10,2013-06-10 02:36:00,
2013-06-09 22:51:00,71.4,67.0,29.81,SSE,161,1.0,5.0,86,0.00,,,0.00,weatherlink.com 1.10,2013-06-10 02:51:00,
2013-06-09 23:06:00,71.1,67.0,29.82,SE,130,2.0,6.0,87,0.00,,,0.00,weatherlink.com 1.10,2013-06-10 03:06:00,
2013-06-09 23:21:00,70.9,67.0,29.82,South,178,3.0,9.0,88,0.00,,,0.00,weatherlink.com 1.10,2013-06-10 03:21:00,
2013-06-09 23:36:00,70.7,67.0,29.81,South,169,2.0,5.0,89,0.00,,,0.00,weatherlink.com 1.10,2013-06-10 03:36:00,
2013-06-09 23:51:00,70.3,67.0,29.81,South,180,2.0,7.0,90,0.00,,,0.00,weatherlink.com 1.10,2013-06-10 03:51:00,